Location: Antichan
(42.9728°N, 0.6667°E)
Time: 18:17:58
(UTC+00:00)

Lacrosse 5 - Pass Details

Date: 15 August 2020
Orbit: 717 x 720 km, 57.0° (Epoch: 18 September)

Event Time Altitude Azimuth Distance (km) Brightness Sun altitude
Rises 20:31:55 0° 313° (NW) 3,128 7.0 -15.8°
Reaches altitude 10° 20:34:18 10° 315° (NW) 2,205 5.7 -16.1°
Maximum altitude 20:39:24 81° 43° (NE) 732 1.8 -16.9°
Enters shadow 20:41:50 31° 127° (SE) 1,241 2.5 -17.2°
